Regional Weather Roundup
Issued by NWS Bismarck, ND

Home | Current Version | Previous Version | Text Only | Print | Product List | Glossary On
Versions: 1 2 3 4 5 6 7 8 9 10 11 12 13 14 15 16 17 18 19 20 21 22 23 24 25 26 27 28 29 30 31 32 33 34 35 36 37 38 39 40 41 42 43 44 45 46 47 48 49 50
965
ASUS43 KBIS 211602
RWRBIS

NWR BROADCAST TEXT
NATIONAL WEATHER SERVICE BISMARCK ND
1100 AM CDT MON MAY 21 2018

NOTE: "FAIR" INDICATES FEW OR NO CLOUDS BELOW 12,000 FEET WITH NO
SIGNIFICANT WEATHER AND/OR OBSTRUCTIONS TO VISIBILITY.


CITY           SKY/WX    TMP DP  RH WIND       PRES   REMARKS
WILLISTON      SUNNY     69  39  33 S15G21    29.94F
MINOT          SUNNY     72  31  22 S15G25    29.97F
MINOT AFB      NOT AVBL
BISMARCK       SUNNY     65  41  41 SE8       30.00F
DICKINSON      SUNNY     65  36  34 S15G23    29.96F
GARRISON         N/A     65  35  33 S12       29.99F
HETTINGER ARPT SUNNY     62  39  42 SE15G21   30.00F
JAMESTOWN      SUNNY     68  49  50 S9        30.01F
CARRINGTON     FAIR      68  34  28 SE15      30.03F
HAZEN          FAIR      68  30  24 S14G21    30.00F
LINTON           N/A    N/A N/A N/A SE13      30.02F
MANDAN         FAIR      64  37  36 SE10      30.01F
OAKES            N/A     66  50  55 SE8       30.02F
STANLEY          N/A     64  34  32 S21       30.00S HAZE
TIOGA          FAIR      64  37  36 S18G26    29.97F
WATFORD CITY   FAIR      66  37  34 S15G22    29.94F
$$

CITY           SKY/WX    TMP DP  RH WIND       PRES   REMARKS
GRAND FORKS    PTSUNNY   68  36  30 SE9       30.04F
GRAND FORKS AF NOT AVBL
DEVILS LAKE    FAIR      66  37  34 SE8       30.04F
FARGO          FAIR      68  42  38 SE6       30.03F
CANDO          FAIR      70  32  24 S13       30.05F
CAVALIER         N/A     70  41  35 CALM      30.04F
GRAFTON        FAIR      68  39  34 S6        30.06F
GWINNER          N/A     66  46  48 E13       30.02F
LANGDON        FAIR      70  32  24 S12       30.04F
ROLLA          FAIR      68  28  22 S12G21    30.02F
WALHALLA       FAIR      72  36  26 S9G16     30.03F
$$

CITY           SKY/WX    TMP DP  RH WIND       PRES   REMARKS
ABERDEEN       CLOUDY    64  53  67 S8        30.02F
MOBRIDGE       SUNNY     66  41  40 S10       29.99S
RAPID CITY     SUNNY     62  49  62 S16       29.97F
GLASGOW        SUNNY     64  46  52 SE8       29.88F
SIDNEY         SUNNY     67  45  45 S14       29.93F
WOLF POINT     SUNNY     65  47  52 E6        29.91F
GLENDIVE       SUNNY     64  46  52 S10       29.94F
MILES CITY     SUNNY     62  48  60 SE9       29.91S
BAKER          SUNNY     62  43  49 S18       29.96F
$$

CITY           SKY/WX    TMP DP  RH WIND       PRES   REMARKS
BILLINGS       MOSUNNY   64  53  67 SW10      29.92S
GREAT FALLS    PTSUNNY   61  48  62 W7        29.94R
$$





USA.gov is the U.S. government's official web portal to all federal, state and local government web resources and services.